Theta_e
278 277 277 277 277 277 277 277 277 277 277 277 276 277 276 275 274 271 272 273 273 274 275 275 275 276 276 276 277 276 274 278 279 276 276 275 275 278 282 285 285 286 287 287 287 288 288 289 289 289 290 291 291 292 293 293 293 294 294 295 296 297 298 298 299 299 300 300 300 301 301 301 302 302
277 277 277 277 277 277 277 277 277 277 277 276 276 276 276 276 276 274 273 273 274 273 275 275 275 275 275 276 277 276 275 279 279 276 276 275 275 280 282 283 284 285 286 286 287 288 288 288 289 289 289 290 291 292 293 293 293 294 295 295 296 297 297 298 298 298 298 299 299 300 300 301 301 302
277 277 276 276 276 276 276 276 276 276 276 276 276 276 276 276 275 275 273 270 273 275 274 275 275 274 274 276 275 276 276 277 278 276 275 275 278 280 279 280 282 284 285 285 286 287 288 288 288 289 289 290 291 291 292 292 292 292 293 295 296 296 297 297 296 297 297 297 298 299 300 300 301 302
277 276 276 276 276 276 276 276 276 276 276 276 276 276 275 275 275 275 274 273 274 275 273 274 274 274 274 275 274 274 275 276 278 275 275 276 279 277 276 279 281 282 284 285 286 287 288 288 289 289 289 290 290 290 291 291 291 291 292 294 295 295 295 295 295 296 296 296 297 298 298 299 299 300
276 276 276 276 276 276 275 275 275 275 275 275 275 275 275 275 275 274 274 272 272 274 274 274 274 274 274 273 274 274 274 274 274 277 275 275 275 275 275 276 279 282 283 285 286 287 287 288 288 288 289 289 289 290 290 290 290 291 292 292 293 294 294 295 295 295 295 296 296 296 297 297 298 298
276 276 276 275 275 275 275 275 275 275 275 275 274 274 274 274 274 275 273 273 272 272 272 272 273 272 274 272 274 273 273 273 275 274 275 275 275 275 275 275 276 281 283 284 285 286 287 287 288 288 288 288 289 289 289 290 290 290 291 291 291 292 292 293 293 294 293 295 295 296 296 297 298 298
276 275 275 275 275 275 274 274 274 274 274 274 274 274 274 273 273 274 274 272 270 271 270 272 271 272 272 272 272 273 274 274 274 274 274 275 276 276 276 276 276 280 283 284 285 286 286 287 287 287 287 287 288 288 289 289 289 289 290 290 291 291 291 292 292 293 293 294 295 295 295 296 297 297
275 275 275 275 274 274 274 274 274 274 274 274 273 273 273 273 272 272 272 272 271 270 268 270 270 272 271 272 273 274 274 274 274 274 274 275 275 275 276 276 275 278 282 284 284 285 285 285 285 286 286 287 287 287 288 288 288 289 289 289 289 290 290 290 290 291 291 292 293 294 294 295 295 295
275 275 275 275 274 274 273 273 273 273 273 273 272 272 272 272 272 271 271 271 271 270 269 269 271 272 272 273 273 274 273 273 274 274 274 274 275 275 275 276 277 280 282 282 282 283 283 284 284 285 285 286 286 287 287 288 288 288 288 288 288 289 289 289 289 290 290 290 291 292 293 294 294 294
276 275 275 274 274 274 273 273 273 273 272 272 272 271 271 271 271 270 270 270 270 270 269 269 269 271 271 272 272 273 274 273 273 273 274 274 275 274 274 275 277 277 278 277 278 280 281 282 283 284 285 285 286 286 287 287 287 287 286 287 287 287 288 288 289 289 289 289 290 290 291 292 292 292
276 275 275 274 274 274 274 273 272 272 272 271 271 271 271 271 270 270 270 270 269 269 269 270 270 271 272 272 271 274 274 274 274 272 273 273 275 275 275 275 276 276 277 279 281 280 281 282 281 282 283 284 285 285 286 286 286 285 285 286 286 286 287 288 288 288 289 289 289 289 289 290 291 292
275 275 275 274 274 274 274 273 273 272 271 271 270 271 271 270 270 270 270 269 269 269 269 269 269 271 272 272 273 274 274 272 273 274 274 272 273 273 274 274 274 275 276 276 276 279 280 280 280 282 282 282 283 284 283 284 283 283 284 284 285 286 287 287 288 288 288 288 289 289 289 289 289 291
274 274 274 274 274 274 276 276 275 274 274 271 270 270 270 270 270 269 269 269 270 270 270 270 272 272 272 273 272 272 272 272 272 274 274 273 273 273 274 274 275 276 275 275 276 276 277 276 276 277 276 277 279 280 281 282 282 282 283 284 285 286 287 287 288 288 288 288 288 289 289 289 289 289
274 274 273 274 276 277 277 277 277 277 277 276 272 271 271 270 269 269 268 269 269 270 269 270 271 272 271 272 273 273 273 274 274 273 273 271 273 274 274 275 275 276 276 275 274 275 277 275 275 275 275 277 278 277 277 277 279 281 284 285 286 286 287 287 288 288 288 289 289 289 289 289 289 289
273 273 272 272 275 276 277 276 278 278 278 277 276 276 275 274 271 269 269 269 271 270 270 272 272 272 272 273 274 273 274 274 273 272 273 273 273 272 271 270 274 278 276 274 273 272 274 274 272 273 274 275 276 276 276 280 281 282 284 285 285 286 286 287 287 287 288 288 288 289 289 289 289 289
272 272 272 272 273 274 274 274 276 277 279 278 278 278 277 277 277 276 273 271 271 272 272 272 273 273 273 273 274 274 274 273 273 274 274 274 273 272 272 272 272 276 276 272 270 270 273 273 272 272 273 274 275 275 278 281 281 282 283 284 285 285 285 286 287 287 287 288 288 288 289 289 289 289
272 272 271 271 272 273 276 275 274 275 276 279 279 278 278 278 278 279 279 278 275 275 274 273 273 274 274 273 274 274 273 275 273 274 274 274 274 274 273 273 273 274 274 271 269 268 271 272 271 271 273 273 274 274 277 279 281 283 283 284 285 285 285 286 286 286 287 287 288 288 288 289 288 288
272 272 271 271 271 272 274 274 274 275 275 276 276 276 276 276 278 280 280 280 280 279 276 275 273 274 274 273 274 275 276 275 273 274 274 275 274 273 272 273 272 272 272 269 268 267 269 271 270 270 271 273 273 273 276 280 281 282 283 283 284 284 284 284 285 286 286 287 287 288 288 288 288 289
272 272 272 271 271 272 273 274 274 275 275 276 275 276 276 277 277 278 278 278 277 277 275 274 274 274 275 275 275 276 276 276 275 276 275 274 272 272 272 270 270 270 271 270 269 264 268 270 269 269 270 272 272 273 277 279 280 281 281 282 282 283 283 284 284 285 286 287 287 288 288 288 288 288
272 272 272 272 272 273 274 276 278 277 275 274 274 274 274 274 274 274 276 277 277 275 274 275 275 276 276 278 277 277 278 278 278 277 274 272 269 266 265 264 266 266 270 271 268 266 266 270 268 269 271 272 271 272 273 277 279 280 280 281 282 282 282 283 283 284 285 286 286 287 287 288 288 288
272 272 273 273 273 274 274 277 280 280 278 272 272 271 270 270 271 271 274 277 278 278 279 279 279 280 280 281 281 280 280 278 277 273 270 267 265 262 262 263 264 264 268 269 269 267 265 268 269 269 270 270 271 271 272 272 276 278 279 280 281 281 281 282 282 283 283 284 285 286 287 287 288 287
273 273 276 275 274 274 274 279 281 281 278 272 272 271 270 269 270 271 273 275 276 279 280 280 280 280 279 278 278 277 276 276 276 270 266 265 263 262 261 261 263 264 266 267 270 264 265 268 270 268 269 270 270 271 272 272 273 276 277 278 279 280 280 280 281 281 282 283 283 284 285 286 287 285
273 274 276 277 276 275 276 280 281 282 278 272 272 271 270 270 270 271 274 273 272 274 274 274 273 274 274 272 271 272 274 273 272 269 267 264 261 261 261 261 261 261 262 268 270 265 265 267 269 269 266 265 268 271 271 271 271 272 272 272 273 277 278 279 280 280 281 282 282 283 284 285 285 283
273 274 275 277 279 279 279 280 282 282 280 273 272 272 271 270 270 273 273 273 274 273 272 271 272 271 271 271 271 269 268 268 268 268 268 266 264 261 261 261 262 261 262 266 270 267 267 268 266 269 267 264 263 267 270 269 271 271 272 272 272 275 277 277 277 279 279 280 281 281 282 283 284 281
272 273 274 275 279 279 280 280 282 282 282 277 273 273 272 273 273 275 272 274 276 272 270 269 269 267 267 266 266 267 266 266 267 267 268 268 268 265 263 262 262 262 265 268 272 268 264 265 264 266 266 266 266 266 268 269 270 271 271 272 271 272 272 272 273 273 276 277 279 280 281 282 283 282
273 273 274 274 278 280 280 280 281 282 282 280 275 275 277 278 277 275 273 270 268 267 266 264 263 262 261 261 260 261 263 265 266 267 267 268 268 268 268 265 263 263 264 268 272 268 265 264 265 264 265 264 264 267 266 267 269 270 271 272 272 272 272 271 272 271 272 272 272 274 275 280 281 283
273 273 274 275 278 280 280 280 281 281 282 281 277 279 279 278 278 275 268 268 265 264 263 262 261 261 260 259 259 260 263 265 266 266 267 267 268 268 268 269 269 267 268 269 269 268 266 265 267 265 264 265 264 265 266 265 266 270 270 271 271 272 272 272 271 271 271 271 272 277 279 280 281 282
273 273 273 275 279 280 280 281 281 281 281 280 280 280 279 279 277 267 267 265 264 262 261 260 259 258 259 259 260 261 263 265 266 267 267 267 267 267 268 268 268 268 268 268 268 268 268 266 266 267 267 265 264 264 264 267 268 268 268 270 271 271 271 271 271 271 271 271 271 272 272 273 275 276
274 275 277 277 279 280 280 281 281 281 281 281 280 279 279 276 266 265 264 263 261 262 260 259 257 257 259 261 262 265 265 266 266 266 265 266 266 266 266 266 266 266 267 267 268 268 268 267 266 267 267 267 266 266 266 265 267 267 268 268 267 269 270 271 270 270 270 270 270 270 270 271 272 275
277 277 278 278 279 280 280 278 278 276 277 279 279 279 273 266 265 263 262 261 261 260 258 258 257 258 260 262 264 265 265 263 262 262 261 260 261 262 262 262 263 264 266 267 268 268 268 268 268 268 267 267 267 266 267 266 265 267 268 267 268 269 270 270 270 270 270 269 270 270 271 272 273 276
275 276 276 276 278 278 280 278 276 276 277 274 270 266 265 263 262 262 261 261 260 259 257 257 258 260 262 262 261 261 261 260 261 263 261 260 260 261 262 261 261 263 264 266 268 268 269 269 269 269 267 267 267 267 267 267 265 266 266 267 267 264 267 269 269 269 269 269 269 269 270 270 271 274
275 275 277 277 276 276 273 270 269 267 266 265 265 263 262 261 261 262 265 264 262 261 262 261 261 260 259 257 258 259 260 260 260 261 260 260 260 261 262 261 261 262 263 264 265 268 269 270 269 269 269 268 266 266 268 267 265 265 266 267 267 268 268 268 268 268 269 269 268 268 268 269 269 271
274 274 273 271 269 267 266 265 264 263 263 262 261 261 260 260 260 260 260 260 260 260 258 257 256 256 258 257 258 258 258 258 259 260 259 260 260 261 262 261 261 261 261 263 264 265 266 268 269 269 269 268 268 268 266 264 265 266 265 265 266 266 267 268 268 268 269 268 267 267 268 269 270 271
272 271 269 268 268 267 266 265 264 264 263 261 259 258 262 259 258 258 258 258 258 258 257 258 257 257 258 257 257 257 258 258 258 260 263 261 261 260 260 260 261 262 262 263 263 264 265 265 266 267 267 267 268 268 267 265 265 266 266 267 266 266 267 268 268 268 268 268 267 266 267 268 270 271
270 269 268 268 267 266 266 265 265 263 262 261 259 258 260 259 259 260 258 258 259 259 259 259 258 258 257 258 257 257 257 258 259 258 260 260 260 260 260 260 261 261 262 262 263 264 265 264 264 264 264 265 265 266 271 269 265 265 266 266 267 266 266 267 268 268 269 268 269 267 267 268 269 272
269 269 268 267 266 265 265 265 264 263 262 261 259 258 257 257 258 258 257 259 258 258 258 258 258 258 258 258 258 257 258 259 259 259 259 259 259 260 261 261 262 262 263 263 263 264 264 264 264 262 262 262 262 261 263 271 271 268 266 265 266 266 267 268 268 268 268 268 268 267 266 266 268 270
269 268 268 267 266 265 265 264 263 261 261 260 259 259 258 257 257 258 259 261 259 258 258 258 257 258 258 258 258 258 258 259 258 259 259 259 259 260 260 261 262 262 262 263 264 264 264 263 263 262 261 261 260 260 262 266 269 272 269 266 266 267 267 267 267 266 267 268 267 267 267 267 267 270
268 267 267 266 265 264 264 263 261 260 259 259 258 258 258 258 258 258 259 258 257 257 257 258 257 258 257 257 257 257 258 259 259 258 259 259 259 259 261 261 262 262 263 264 264 264 264 263 262 262 262 261 260 260 260 264 265 267 271 269 266 267 268 267 265 265 266 267 267 268 268 267 267 269
268 266 266 265 264 263 263 261 260 259 259 258 258 257 257 257 257 257 256 256 256 256 256 256 256 256 257 257 258 258 258 258 258 258 259 259 260 260 261 262 262 263 264 263 264 263 263 262 262 262 262 262 261 261 263 262 263 266 269 273 270 267 267 267 266 266 266 266 267 268 268 270 271 274
267 266 266 265 263 263 262 260 260 259 258 257 257 257 256 256 255 255 255 255 255 255 256 256 257 258 258 258 256 255 256 257 258 258 259 259 261 262 262 263 263 264 263 262 262 262 262 262 262 262 263 264 265 266 266 266 266 267 267 269 273 271 268 268 266 266 266 267 268 267 266 267 267 269
265 265 264 263 262 262 260 259 259 258 257 257 255 257 255 255 255 255 254 254 255 255 256 257 258 256 256 255 255 256 257 258 259 259 260 261 262 263 264 264 263 264 262 261 261 261 261 263 265 269 267 266 267 267 265 263 262 263 264 266 271 273 274 273 269 268 267 268 268 266 266 265 266 267
265 264 264 262 261 261 260 258 257 256 255 255 255 255 255 255 254 257 257 259 258 257 256 255 254 255 255 255 255 257 257 258 258 259 260 261 261 263 264 264 263 263 261 260 261 261 263 265 265 265 265 265 265 263 261 262 261 263 264 265 267 271 273 273 274 273 270 269 267 266 266 266 267 265
264 263 261 260 260 258 257 257 256 255 255 254 254 254 253 253 254 256 255 254 254 254 253 254 254 254 255 255 255 256 257 257 259 260 261 262 262 262 263 263 263 262 262 262 262 263 263 263 264 264 264 263 263 263 261 262 263 263 264 264 265 266 268 271 273 273 274 274 274 272 269 268 266 264
262 261 260 259 258 257 256 255 254 254 254 254 253 253 253 253 252 253 253 252 253 253 253 254 254 254 254 255 255 256 257 258 260 261 262 262 263 263 263 263 263 262 262 261 261 262 262 263 263 263 262 262 263 263 262 263 262 263 264 264 265 265 265 266 268 270 272 273 274 274 275 275 275 274
261 259 258 257 256 255 255 254 253 253 253 253 253 252 253 253 252 252 253 253 253 253 253 253 253 253 254 254 255 256 258 262 262 262 262 262 262 263 263 263 262 262 261 261 261 261 261 261 262 263 262 263 263 263 263 263 263 263 263 263 263 264 265 265 265 265 266 266 270 274 274 275 275 276
Wind_Speed
7 6 8 8 7 6 5 5 5 5 5 5 5 6 7 7 5 1 1 3 4 3 4 4 2 3 4 4 2 1 1 3 4 2 3 4 4 10 16 16 17 17 17 17 17 17 17 17 18 18 19 19 19 20 20 21 22 23 23 24 25 26 26 26 26 26 26 26 26 26 26 26 26 27
7 6 6 6 7 6 7 7 6 6 6 6 6 6 4 5 8 6 6 6 4 4 3 1 3 3 3 2 2 3 2 4 4 3 4 4 4 12 15 16 16 17 17 18 18 18 18 18 18 19 20 20 21 21 21 22 22 23 24 25 25 25 26 26 26 26 26 26 27 27 27 27 27 27
8 9 9 7 7 7 7 7 6 6 6 7 6 6 5 4 4 8 5 2 5 4 3 1 2 2 1 1 2 1 1 3 5 4 4 4 10 14 11 15 16 17 18 18 18 18 19 19 19 20 20 21 21 22 22 22 23 24 25 26 26 26 26 26 26 27 28 28 28 28 28 28 28 28
8 9 10 9 8 8 7 7 7 7 6 6 7 7 6 5 4 6 6 7 8 2 3 0 1 4 4 5 6 4 4 4 7 4 5 6 10 7 6 10 14 16 17 17 18 19 19 20 20 19 21 21 22 22 23 24 24 25 26 26 27 27 27 28 28 28 29 29 29 28 29 29 29 29
8 9 9 9 7 8 9 8 7 7 7 7 6 6 6 7 6 8 8 8 7 4 1 2 2 4 5 6 5 8 7 9 8 8 7 7 6 6 6 6 11 16 18 18 19 19 19 19 19 20 20 21 22 23 23 24 24 25 25 26 27 28 27 28 29 29 28 29 30 29 29 29 30 30
9 9 9 9 8 8 9 8 9 8 8 8 8 8 9 8 9 8 8 7 6 8 1 1 2 2 1 3 4 5 6 8 8 9 9 7 7 7 7 7 7 16 19 20 21 21 21 20 21 21 22 22 23 23 23 24 24 24 25 26 26 26 28 29 29 29 29 30 30 31 30 30 30 30
10 10 10 10 9 7 9 9 8 8 9 8 9 9 8 8 8 8 7 7 7 6 4 2 1 2 3 3 5 6 6 7 7 9 9 8 7 6 6 6 5 12 17 19 19 20 21 22 22 22 22 22 23 24 24 24 24 24 25 25 26 28 28 28 30 30 29 30 31 31 30 31 32 33
12 13 11 11 11 10 11 10 9 8 8 9 8 8 7 7 7 7 6 6 5 4 5 2 4 3 3 4 6 7 7 7 7 8 9 8 8 7 6 6 6 8 15 17 18 19 20 21 21 21 22 22 22 23 23 24 25 25 26 26 27 27 28 29 30 29 30 31 31 31 33 33 32 32
13 13 13 12 12 11 11 9 10 9 11 9 8 8 7 7 6 6 6 6 5 6 6 4 4 5 5 5 6 7 7 7 7 8 8 7 7 7 6 5 6 11 15 15 18 19 20 20 20 21 21 21 22 23 24 25 25 26 27 27 27 28 28 29 30 31 32 32 32 32 34 34 33 33
13 13 12 12 12 13 14 13 11 10 12 9 9 9 8 7 6 7 6 6 6 6 6 6 6 5 5 4 5 6 7 7 7 6 6 5 5 4 3 4 4 3 4 6 7 10 12 14 19 19 19 21 23 24 24 25 26 26 27 28 29 29 29 31 31 32 33 33 33 34 34 35 35 34
13 13 13 13 14 15 14 13 13 13 11 10 10 9 9 8 8 7 7 7 7 7 6 6 6 5 5 6 6 6 7 8 7 7 5 4 2 3 4 7 5 5 6 8 14 13 13 15 13 16 21 22 23 23 24 25 26 27 28 28 30 30 31 31 32 33 33 34 35 34 35 35 35 35
14 14 13 13 14 14 13 13 12 12 12 10 10 9 8 9 9 8 7 7 7 7 7 6 6 6 6 5 6 6 5 5 5 4 3 7 7 7 5 6 9 6 6 7 5 6 8 9 13 18 18 20 22 23 23 25 26 28 27 28 29 30 31 32 33 33 34 34 35 35 36 36 35 34
13 12 12 12 13 13 13 15 13 13 12 11 11 9 10 10 9 7 7 7 7 6 6 5 6 6 6 6 5 5 4 3 4 3 3 6 6 7 7 4 4 7 7 6 5 5 4 8 8 8 8 7 14 17 22 19 23 24 25 27 29 30 32 32 33 34 33 35 35 36 36 36 35 33
13 13 12 12 17 18 18 18 18 19 19 16 12 11 12 11 10 9 9 8 7 7 7 6 6 6 5 5 5 3 3 2 1 2 4 6 6 7 8 6 3 4 6 6 7 7 7 10 10 8 9 7 10 10 9 9 13 19 25 27 29 30 31 34 32 35 35 36 36 36 36 36 36 35
14 12 11 10 15 16 17 16 21 20 20 20 19 18 17 14 13 12 10 9 9 8 7 7 7 6 5 4 3 2 3 1 0 3 4 6 8 8 10 11 5 3 5 8 10 13 8 8 9 5 7 9 9 8 8 17 22 25 27 29 30 31 32 32 33 34 34 35 35 34 35 36 35 36
14 14 12 12 11 12 14 13 15 18 21 21 20 20 19 19 18 15 11 11 10 10 8 8 8 7 6 4 2 3 1 2 2 4 6 7 8 9 10 10 11 5 8 13 12 13 7 8 8 7 6 8 9 10 17 23 25 26 27 27 28 29 30 31 32 34 35 35 35 36 35 35 36 35
15 13 13 12 11 10 20 15 12 12 14 18 21 19 20 20 21 20 19 15 9 9 9 8 7 6 4 4 4 2 1 4 6 6 6 7 7 8 9 8 10 10 8 12 12 12 7 7 9 9 7 8 10 11 14 22 25 27 27 27 27 28 29 31 32 34 35 35 36 35 35 35 36 36
14 15 14 14 11 10 13 12 13 12 12 12 12 12 12 11 17 19 20 20 19 14 8 7 7 4 3 4 2 3 5 5 5 5 5 6 6 5 6 9 10 10 7 9 11 14 1 1 10 12 8 7 10 10 16 24 24 27 28 28 30 31 32 32 32 33 35 36 36 36 35 35 35 35
13 14 13 11 10 12 13 12 16 13 13 12 12 12 12 12 11 11 11 11 7 6 3 4 4 2 2 3 6 7 5 6 6 5 5 3 3 6 7 7 8 8 3 5 6 10 9 5 10 15 9 9 11 7 14 23 26 29 30 32 32 32 30 30 32 33 34 35 35 36 36 36 36 36
10 11 12 10 10 11 11 17 24 18 13 11 13 12 10 8 7 6 5 7 6 4 3 3 4 5 7 10 8 7 6 4 3 2 3 4 4 5 7 9 5 6 3 3 5 9 11 7 9 17 11 7 12 11 10 19 27 27 27 30 30 30 30 32 33 33 34 35 36 36 36 36 37 36
12 12 11 10 9 11 11 19 24 23 19 11 13 11 10 7 6 6 6 12 15 14 15 14 13 13 14 12 10 9 9 5 3 3 5 5 1 3 8 11 6 7 5 5 5 7 11 8 8 14 16 11 13 13 12 9 17 24 26 28 31 31 31 32 33 34 36 37 37 36 37 37 35 39
10 12 19 15 10 11 11 21 24 24 19 12 13 11 11 10 9 8 6 6 8 16 16 15 14 11 9 9 7 3 3 5 6 1 5 3 1 5 4 9 9 8 5 9 6 2 5 9 8 12 15 18 11 8 10 12 10 17 21 26 29 30 32 33 33 33 33 35 36 37 38 38 35 25
9 11 15 20 14 11 15 24 25 26 20 12 13 13 11 11 11 9 9 7 6 6 5 4 1 4 5 1 3 1 5 6 6 3 5 3 3 5 5 6 7 10 2 4 2 5 6 9 10 9 13 16 20 5 6 10 11 10 13 14 16 24 29 32 33 33 34 34 36 36 36 35 34 21
10 11 10 15 20 20 21 23 25 25 24 13 11 10 10 11 11 8 8 8 8 7 5 3 3 4 3 3 1 1 0 3 4 5 5 3 4 5 5 5 4 7 5 2 7 7 7 6 10 9 7 11 16 17 15 15 17 15 13 14 12 18 24 29 27 33 33 32 34 35 36 36 33 20
12 12 12 10 19 22 22 22 25 25 25 18 12 12 10 9 8 9 7 10 14 5 4 4 3 1 0 0 1 1 1 3 4 4 5 4 5 5 5 6 6 9 10 9 11 6 6 6 11 10 10 7 16 19 17 15 16 16 15 13 14 14 15 14 16 16 22 31 34 37 36 36 37 28
11 7 9 9 18 24 23 22 24 26 24 24 11 12 14 15 17 11 7 5 5 5 4 3 2 2 1 1 1 1 2 4 4 5 5 6 6 6 7 6 8 9 11 4 10 7 9 12 10 10 11 10 15 15 20 19 18 15 14 12 12 13 14 15 17 18 15 15 17 21 25 35 35 36
8 7 7 9 21 24 25 24 24 24 25 21 12 19 20 18 19 11 6 6 6 5 4 3 3 3 2 2 2 2 2 3 4 5 5 6 6 7 7 8 9 11 12 11 7 7 7 11 11 11 14 11 13 17 17 18 16 14 21 19 13 12 12 15 17 18 18 17 18 30 32 35 36 38
6 7 9 13 22 24 24 24 24 22 22 14 19 21 20 21 15 8 7 6 5 5 4 4 5 5 3 2 2 2 2 3 4 5 5 6 7 8 8 8 9 10 12 12 10 8 8 10 12 12 14 14 14 15 19 19 20 18 15 20 19 14 14 12 19 15 18 17 18 18 18 19 18 19
7 10 20 19 22 23 23 23 23 20 22 24 20 20 21 14 7 7 6 6 5 5 5 6 5 4 3 3 3 3 3 4 5 5 3 4 6 7 9 10 10 11 11 10 11 11 10 11 12 13 13 12 12 14 13 22 18 18 22 19 19 13 17 12 22 16 20 17 19 19 19 19 20 19
19 20 22 22 24 23 20 16 12 9 10 19 21 17 14 7 6 6 6 5 6 6 6 5 6 3 1 2 2 3 3 3 3 3 4 4 6 5 7 9 9 8 10 11 12 11 11 12 12 13 14 14 12 15 14 15 21 22 19 17 22 19 17 9 15 16 15 18 21 20 21 19 20 19
14 17 18 14 18 12 21 14 11 11 9 9 8 7 6 5 5 5 5 6 6 6 5 5 3 2 1 1 2 2 2 4 4 4 5 5 6 5 7 8 12 10 7 8 10 10 10 11 12 12 13 14 13 15 13 12 17 21 19 18 14 16 19 19 16 18 21 17 20 22 20 19 21 22
11 13 16 18 12 10 8 8 7 6 6 6 6 6 6 5 5 6 8 7 4 4 4 2 2 0 0 1 2 2 3 4 5 3 5 5 7 6 6 8 11 10 10 7 6 9 11 11 12 12 14 14 17 18 15 14 16 18 21 20 17 15 17 17 19 16 15 20 20 21 19 19 19 16
11 10 10 9 10 10 10 9 9 8 7 6 6 8 8 6 6 6 7 7 7 5 4 4 3 2 1 2 1 2 3 5 5 4 5 6 6 7 5 9 11 11 12 13 8 7 7 9 11 15 14 14 16 17 17 16 19 18 17 17 16 19 16 13 14 20 16 16 20 19 22 20 17 19
14 13 12 11 12 12 11 12 11 11 9 9 8 7 8 6 5 6 5 7 5 5 5 4 4 3 2 2 2 2 4 4 4 6 7 6 5 7 8 9 10 9 9 11 11 10 9 9 8 11 14 16 16 18 16 15 19 21 19 15 16 19 18 14 16 15 20 14 20 22 22 22 20 18
14 13 14 13 12 13 12 13 12 10 10 9 10 6 6 6 7 6 5 4 5 5 4 4 4 3 3 3 2 3 4 4 5 4 5 6 6 7 8 9 11 10 9 10 10 10 8 11 10 12 13 12 13 14 18 18 15 19 18 17 12 17 20 17 16 12 17 18 15 19 23 23 22 17
13 13 13 13 12 12 12 11 9 10 9 10 11 7 8 5 5 6 5 6 4 4 4 4 4 3 3 4 3 3 4 5 5 5 5 5 7 8 8 9 10 11 10 9 11 10 8 10 10 12 15 16 15 19 19 9 12 14 16 19 14 13 16 16 16 16 15 17 17 18 21 25 22 19
13 12 12 11 11 11 12 11 10 9 9 11 10 7 8 6 5 4 4 5 3 3 3 3 3 4 4 3 4 4 5 5 5 5 5 6 7 8 9 10 10 9 11 11 8 10 8 10 8 9 11 15 15 15 22 13 11 17 15 16 19 16 15 17 16 18 14 14 21 18 20 23 25 21
13 12 11 10 10 10 8 8 8 10 9 9 11 9 6 4 5 5 5 4 2 3 2 2 2 2 2 3 3 4 4 4 4 5 7 6 8 8 8 10 10 10 10 11 8 8 8 9 10 9 9 12 15 18 20 18 12 10 14 18 19 23 16 15 20 18 17 13 17 19 19 22 25 19
12 13 13 11 10 9 9 10 11 12 12 12 12 11 7 5 5 4 4 3 3 3 3 3 3 3 4 3 4 4 4 4 5 6 7 7 8 9 9 9 10 10 11 12 11 9 7 9 9 9 9 11 14 16 17 19 22 19 14 26 23 23 20 15 19 19 17 14 15 15 19 20 24 37
10 10 10 10 9 9 8 8 8 9 13 12 11 8 9 7 5 4 4 4 4 3 3 3 4 4 3 3 3 2 3 6 7 7 8 8 8 9 9 9 9 11 11 12 13 12 10 9 9 9 10 12 14 14 17 18 19 20 16 17 27 26 24 19 19 20 20 17 15 16 19 14 17 16
11 11 10 8 8 9 9 10 10 10 10 11 9 7 5 6 6 4 5 4 4 4 3 3 3 2 3 3 3 3 4 6 6 7 8 9 10 10 11 13 11 9 10 14 14 13 13 10 12 22 21 14 14 15 14 15 18 18 17 13 14 26 33 30 25 22 24 19 19 18 19 18 18 16
12 11 10 10 11 9 10 11 10 9 9 8 9 8 7 5 5 8 6 6 5 4 2 2 2 3 4 3 3 4 4 6 7 8 9 9 10 10 10 8 9 10 10 13 14 15 14 13 12 11 11 11 11 11 18 17 20 21 22 19 13 17 29 33 36 36 29 25 19 18 18 17 16 18
11 10 10 8 9 11 11 11 11 12 10 6 8 8 8 5 3 4 5 4 3 2 2 2 3 3 4 4 4 4 5 6 8 8 9 9 9 11 10 9 8 10 11 13 15 13 12 11 11 11 11 10 10 11 16 19 20 20 17 21 21 15 14 24 34 37 37 40 37 31 24 19 15 20
10 10 10 10 11 12 11 11 12 11 11 10 7 5 5 5 5 4 4 4 4 4 3 4 3 4 4 4 4 4 6 7 8 9 9 9 9 10 10 10 11 11 11 11 13 14 13 12 10 10 11 12 12 12 16 18 18 17 18 17 18 18 19 17 18 24 28 34 37 38 43 43 39 39
10 12 12 10 13 11 11 12 13 11 11 10 7 6 5 4 4 4 4 4 4 4 4 4 4 4 4 4 4 6 7 9 9 8 9 9 9 9 8 9 11 12 12 12 13 15 14 13 12 9 10 11 10 12 17 16 18 19 19 19 21 17 18 18 21 22 20 19 22 31 35 37 39 41
Wind_Direction
173 174 178 178 166 170 161 158 159 157 152 161 166 179 171 162 146 161 337 264 179 210 207 146 213 161 150 153 193 109 7 319 335 330 312 304 308 300 309 317 318 316 317 317 316 316 315 314 314 315 317 318 317 317 319 319 320 319 319 317 316 315 313 311 310 308 309 308 307 306 305 303 301 300
172 171 171 169 169 165 166 170 165 164 165 163 173 184 188 172 164 167 168 252 199 189 203 149 139 165 172 164 189 173 202 264 325 322 309 299 276 293 309 310 309 311 315 315 315 316 315 314 315 316 318 319 319 320 320 320 319 318 317 315 314 313 312 311 310 309 308 307 305 304 303 301 300 298
169 175 177 173 170 166 168 162 166 167 164 171 168 174 170 196 161 151 131 146 281 157 185 74 78 109 193 225 266 285 267 308 326 313 292 287 288 301 300 298 303 311 314 315 315 316 315 315 315 316 318 319 320 320 321 319 319 318 316 314 313 313 311 309 308 306 304 303 304 302 301 300 298 297
178 176 181 181 173 168 161 166 171 172 172 166 170 172 173 180 163 145 150 168 242 137 145 146 57 33 349 332 328 333 327 309 315 286 277 275 292 285 268 281 295 305 312 314 316 315 316 317 317 317 320 320 320 320 319 319 317 316 314 313 312 312 310 309 308 307 305 303 302 301 300 299 296 295
179 184 183 180 177 165 169 172 167 173 172 169 173 170 172 176 177 167 163 180 236 290 96 25 358 24 20 334 346 329 330 320 311 308 300 297 291 286 283 289 300 311 315 317 317 315 317 318 318 318 319 317 317 317 316 314 313 312 312 311 310 310 308 307 306 305 303 301 299 298 297 295 294 292
183 180 180 182 175 176 174 170 177 175 173 177 172 184 180 183 184 183 165 186 178 251 40 42 32 26 10 264 302 286 294 287 292 296 298 291 281 284 291 301 305 309 314 317 317 317 318 318 318 316 316 316 316 314 311 310 309 308 308 308 306 304 304 302 301 301 299 296 295 295 293 292 291 290
177 179 187 184 172 171 175 180 182 175 181 179 183 185 185 185 184 183 178 156 187 217 269 142 152 190 223 227 257 262 255 258 268 280 281 281 281 275 276 280 280 292 300 307 310 312 313 314 313 313 312 312 311 309 308 307 306 306 305 304 303 302 302 300 299 299 298 296 295 293 291 291 290 288
183 187 182 185 177 176 180 182 180 185 180 183 186 184 189 183 179 180 168 173 149 167 198 243 151 195 186 231 241 246 249 247 249 243 257 261 265 269 273 273 274 276 288 300 305 306 306 307 306 305 306 304 303 304 303 303 303 303 301 300 299 299 299 299 298 298 296 295 293 291 290 289 288 289
185 187 191 180 174 177 180 182 187 184 186 187 182 186 183 180 174 165 171 163 155 163 199 233 230 216 226 226 234 239 245 247 236 239 240 247 251 258 257 261 264 272 288 298 301 301 301 302 302 301 301 301 302 300 299 299 299 298 298 297 296 296 295 294 294 293 292 292 291 289 287 286 287 285
187 189 187 180 177 180 185 188 186 184 186 180 185 183 181 173 170 166 159 161 163 172 201 208 239 221 223 228 220 224 231 242 258 252 247 242 244 247 262 245 258 270 291 297 287 290 292 291 293 297 297 296 297 297 297 296 295 296 295 294 293 291 291 292 291 290 290 289 287 287 284 285 284 282
187 187 186 182 183 187 190 185 184 182 181 184 186 183 176 174 170 169 168 166 170 181 194 213 221 236 235 218 230 224 220 231 239 264 278 285 285 286 307 303 293 289 281 272 285 290 296 297 298 298 296 293 294 294 291 290 291 293 294 292 291 290 288 288 288 289 288 287 286 285 283 282 280 279
187 188 187 186 188 190 190 186 182 178 181 175 181 179 175 175 171 172 169 171 178 187 196 204 215 226 233 227 215 217 218 235 247 229 295 312 316 312 302 295 301 294 283 292 281 285 289 283 289 290 286 287 288 286 286 286 288 288 288 289 286 285 288 288 289 286 287 285 285 285 283 281 278 277
188 188 188 187 187 188 187 186 181 183 177 171 175 180 176 175 172 172 175 176 179 187 190 209 227 235 227 212 203 213 204 225 263 295 319 300 301 296 296 282 260 278 291 285 277 276 276 298 294 289 284 272 275 275 279 284 287 286 287 286 287 288 287 287 285 286 283 283 283 282 281 279 277 275
191 192 187 186 182 184 185 185 185 185 186 187 182 173 175 175 172 176 175 181 182 179 192 203 213 224 221 213 208 206 219 220 259 309 311 308 310 306 297 293 269 290 283 298 297 292 311 301 292 282 282 275 276 282 285 279 284 285 289 291 290 289 288 288 286 285 284 282 283 281 279 277 274 272
185 188 179 181 183 181 183 186 187 187 188 188 189 185 182 180 173 170 178 187 180 182 196 204 211 218 228 227 212 219 249 241 319 301 307 314 318 320 322 317 320 214 333 320 311 302 298 280 284 288 282 285 277 276 278 289 293 292 292 292 292 292 291 290 288 287 286 285 283 281 279 276 272 271
182 182 178 184 182 182 182 180 186 188 190 189 189 188 187 189 191 191 181 175 182 189 193 203 209 216 225 231 213 236 234 258 291 305 315 309 308 305 303 301 302 312 354 315 306 294 299 291 287 284 272 276 281 286 292 296 295 291 289 290 291 290 290 288 288 287 285 283 282 280 278 276 273 272
184 179 178 179 186 183 182 179 182 180 188 191 189 190 192 196 200 202 201 195 190 189 194 200 210 210 208 220 238 166 194 289 300 305 299 295 292 292 293 297 303 310 338 310 303 297 310 291 293 291 280 275 284 290 293 295 294 292 293 292 291 292 292 290 287 285 285 283 282 280 278 275 275 272
186 182 178 177 177 178 180 179 179 180 183 183 185 188 192 199 208 209 207 206 207 208 200 203 213 211 178 216 217 229 265 280 277 278 274 288 296 297 292 301 293 300 330 300 306 298 304 28 314 295 291 288 286 289 293 295 296 297 299 298 296 296 295 293 290 287 284 283 281 280 278 275 272 271
189 185 182 178 165 169 177 181 179 177 180 181 184 189 195 202 204 208 214 216 214 213 178 187 209 209 188 205 230 238 250 252 244 266 303 351 316 299 300 290 282 291 266 270 295 285 309 354 310 294 298 301 287 275 292 298 297 296 296 296 295 293 291 293 293 290 287 284 282 279 277 275 272 270
190 188 185 176 171 169 173 181 183 182 176 177 182 189 194 193 196 207 211 213 216 205 207 208 197 204 218 231 230 227 227 247 297 354 4 330 336 340 305 288 290 273 272 242 271 287 299 331 304 297 296 289 290 295 287 291 292 292 291 294 294 294 294 293 291 291 290 288 286 282 279 277 274 271
187 186 183 178 166 174 176 182 183 182 177 176 181 185 188 186 189 207 207 218 221 220 217 213 215 223 230 241 255 272 286 291 313 4 327 292 353 324 304 293 294 288 320 279 260 276 294 308 304 299 301 303 292 294 287 275 285 291 290 293 296 296 294 293 290 290 289 288 288 285 282 279 274 272
186 188 187 184 172 172 171 181 184 184 181 178 182 181 182 186 199 207 195 203 217 221 227 231 233 234 238 258 273 310 311 298 309 356 268 268 14 281 253 283 296 301 290 281 255 225 262 304 310 305 301 302 279 277 286 288 279 289 292 291 292 293 293 291 286 287 287 286 286 286 284 281 278 274
181 186 190 187 179 169 173 182 185 186 181 174 180 181 178 192 203 199 183 190 199 216 199 199 187 250 251 85 99 309 326 316 314 292 262 263 224 252 254 264 302 311 295 181 81 330 298 307 301 316 316 310 301 266 245 293 291 283 285 285 288 287 290 290 287 287 286 285 285 284 282 280 278 274
182 184 185 188 186 179 182 187 188 187 181 170 176 177 186 192 200 176 182 195 197 194 175 195 167 160 155 183 150 90 357 277 259 260 246 226 204 221 243 244 242 255 270 281 332 296 297 297 296 306 293 302 302 309 308 299 297 296 288 289 283 288 291 292 288 287 283 284 283 283 284 282 276 272
183 185 186 179 184 183 185 189 191 190 186 174 177 185 191 195 178 174 176 196 195 174 138 131 144 155 103 324 333 355 250 259 253 244 255 245 246 244 246 262 258 257 265 276 296 307 297 309 291 296 280 256 274 293 294 295 285 285 290 288 288 293 293 290 286 283 283 283 283 283 284 282 278 273
189 178 164 146 182 184 186 189 192 193 189 181 173 189 192 193 194 193 168 145 114 125 136 130 159 186 192 195 225 239 234 242 248 248 247 251 252 252 249 251 263 274 277 275 295 305 303 290 283 284 277 278 280 279 292 292 290 291 289 281 285 286 289 287 290 286 282 279 280 278 278 279 276 270
175 126 149 164 181 187 189 190 193 194 194 191 176 188 199 198 203 179 129 138 135 127 149 149 204 240 226 241 245 239 240 252 247 246 249 247 255 258 256 259 262 270 282 289 275 265 259 272 279 276 280 276 280 288 281 288 292 298 299 293 291 280 281 286 282 286 284 283 280 282 281 277 273 272
150 156 165 178 185 191 192 191 192 192 193 189 176 187 196 202 186 125 140 124 146 134 139 187 224 234 219 188 236 232 238 243 259 268 276 275 272 272 272 270 266 266 275 279 280 263 251 259 269 266 267 275 277 281 290 286 286 291 283 292 292 293 288 287 283 280 284 282 281 282 282 281 277 272
166 166 175 178 186 190 188 188 189 191 191 193 188 187 197 172 110 139 130 148 127 169 196 214 218 220 209 205 226 248 266 278 286 280 278 285 280 281 280 275 270 270 269 272 270 265 259 256 263 267 268 264 265 272 274 285 293 291 292 296 294 293 293 287 286 277 285 278 277 274 268 270 272 272
171 175 179 181 187 190 186 183 185 174 179 188 193 181 136 117 140 122 137 128 162 198 201 195 210 214 193 207 239 282 295 290 279 283 278 281 280 278 283 283 272 251 252 260 261 262 259 260 262 265 270 269 265 272 274 286 289 287 288 283 290 293 282 265 282 283 279 283 282 275 274 274 273 274
173 176 180 181 184 183 189 171 131 134 156 163 124 92 115 114 118 137 140 172 176 183 180 191 194 202 206 273 305 286 281 272 271 271 270 271 275 283 276 276 281 283 251 233 248 255 259 262 264 264 270 275 276 270 276 273 277 283 286 283 286 281 291 290 276 277 280 275 277 273 272 271 269 266
164 164 171 174 175 164 145 118 108 101 110 120 126 113 109 118 117 153 161 156 160 174 180 167 154 98 138 294 257 268 265 266 274 271 270 266 274 270 277 283 281 285 288 262 240 248 251 258 265 269 267 274 282 287 286 279 273 275 279 284 285 276 279 281 283 278 276 278 276 273 271 269 267 263
155 158 164 154 146 141 142 144 148 155 140 136 140 137 126 132 152 151 168 170 177 171 142 164 167 194 161 234 237 251 266 267 269 267 266 267 262 273 259 269 281 290 296 296 287 253 240 251 250 262 269 271 268 271 280 285 282 276 275 280 285 283 281 273 270 286 283 277 275 276 275 270 266 266
157 166 162 164 163 159 158 166 168 170 170 156 156 159 156 144 147 164 162 171 163 159 164 167 165 177 182 235 232 240 250 271 262 260 270 274 272 279 276 276 274 274 275 283 291 293 287 266 252 252 254 259 257 257 258 262 272 278 278 281 281 281 280 279 276 276 277 271 279 279 276 276 270 265
163 165 171 174 174 174 168 173 175 169 168 167 148 153 160 148 167 172 169 172 164 162 162 167 165 177 185 222 226 243 256 261 272 265 257 255 269 262 270 276 282 283 282 285 287 288 290 293 296 292 284 276 273 259 226 232 249 266 282 275 265 273 279 280 279 274 275 276 275 275 280 278 276 269
175 175 174 174 175 172 172 177 168 169 170 164 151 145 155 172 171 161 173 172 161 162 157 158 162 174 193 213 220 231 249 261 261 264 268 264 264 271 266 266 273 281 278 276 283 286 287 287 296 298 301 303 301 301 301 216 230 272 278 285 276 269 277 278 276 272 270 272 267 269 274 278 279 275
170 177 179 175 173 174 179 172 167 168 164 157 153 156 159 157 166 165 166 155 144 146 159 157 192 196 203 205 226 243 253 260 267 266 270 268 263 268 277 277 275 274 282 280 278 283 284 283 283 284 291 294 293 290 287 296 240 252 269 279 288 281 282 286 282 276 265 268 273 265 269 276 275 275
175 171 173 172 173 176 171 165 158 157 153 157 151 138 138 135 144 147 150 147 151 147 202 191 186 202 216 219 225 244 246 257 268 275 269 271 270 270 268 282 286 286 283 285 276 274 283 281 283 280 279 286 295 293 297 302 293 257 262 280 283 287 285 282 281 275 273 255 257 267 264 264 269 271
170 170 172 170 171 171 170 171 169 168 156 144 149 150 151 145 142 143 138 143 156 171 171 200 198 208 222 221 224 235 265 281 284 276 274 265 264 272 281 281 286 287 292 293 293 283 271 271 274 277 278 280 282 285 290 293 291 292 281 278 279 282 280 274 275 277 272 268 265 257 255 257 266 270
165 157 162 161 165 165 163 157 160 147 142 151 142 133 142 147 139 137 143 147 146 173 186 204 220 217 217 218 237 260 264 260 263 269 268 270 267 270 272 278 284 294 296 292 294 291 282 273 271 277 280 278 275 274 277 276 275 280 281 274 263 267 272 280 277 279 278 274 272 269 270 269 267 270
153 162 162 157 154 159 156 161 160 157 161 148 140 151 142 143 141 145 144 160 159 173 190 205 199 214 233 252 245 236 256 268 266 269 272 272 275 280 289 295 291 290 292 292 290 288 285 283 280 287 288 280 279 282 280 281 284 288 290 281 262 272 276 276 277 279 278 280 276 270 270 270 272 274
157 159 159 156 161 159 154 150 141 138 126 136 140 141 132 139 140 164 170 179 166 160 157 201 226 243 250 241 244 245 254 266 274 271 273 278 283 285 286 289 289 299 293 290 289 289 289 291 285 285 284 284 287 292 289 289 290 296 297 297 286 270 277 281 278 274 274 277 277 271 270 269 262 262
154 149 149 144 138 122 131 139 141 136 138 139 138 132 120 126 153 156 122 142 157 174 197 222 225 229 248 250 246 246 254 263 265 268 272 276 286 293 294 288 283 284 283 282 284 284 287 290 294 294 292 284 275 273 280 288 290 291 295 298 298 296 282 279 279 278 275 272 268 265 261 259 265 259
140 139 138 140 139 137 133 138 128 136 138 137 137 134 142 141 149 166 156 149 162 184 196 209 227 233 247 258 261 263 259 258 262 269 276 283 286 285 284 291 292 289 282 281 286 291 295 293 287 291 292 291 292 291 287 290 290 291 291 291 295 298 295 294 284 280 277 273 269 264 260 256 253 255
142 142 138 134 130 128 131 129 123 133 137 134 137 137 145 141 150 156 170 169 171 187 197 214 228 239 242 253 257 265 265 270 278 280 284 282 283 282 288 290 292 292 290 293 298 298 301 298 295 284 275 276 279 281 285 283 286 293 295 295 295 297 299 301 302 299 291 286 269 264 262 258 256 256